Time,TemperatureF,DewpointF,PressureIn,WindDirection,WindDirectionDegrees,WindSpeedMPH,WindSpeedGustMPH,Humidity,HourlyPrecipIn,Conditions,Clouds,dailyrainin,SoftwareType,DateUTC
2014-03-03 00:00:00,23.5,12.4,30.01,NE,44,4.0,11.0,62,0.00,,,0.00,VWS V15.00,2014-03-03 05:00:00,
2014-03-03 00:01:00,25.1,13.2,30.01,NE,41,4.0,7.0,60,0.00,,,0.00,VWS V15.00,2014-03-03 05:01:00,
2014-03-03 00:02:00,25.0,13.1,30.01,NNE,31,6.0,6.0,60,0.00,,,0.00,VWS V15.00,2014-03-03 05:02:00,
2014-03-03 00:07:00,24.8,12.9,30.01,NE,44,2.0,6.0,60,0.00,,,0.00,VWS V15.00,2014-03-03 05:07:00,
2014-03-03 00:10:00,23.2,12.1,30.01,NE,34,3.0,9.0,62,0.00,,,0.00,VWS V15.00,2014-03-03 05:10:00,
2014-03-03 00:12:00,24.7,12.8,30.01,NE,46,8.0,8.0,60,0.00,,,0.00,VWS V15.00,2014-03-03 05:12:00,
2014-03-03 00:17:00,24.5,12.2,30.01,NE,52,0.0,9.0,59,0.00,,,0.00,VWS V15.00,2014-03-03 05:17:00,
2014-03-03 00:20:00,23.1,12.4,30.01,NNE,24,1.0,7.0,63,0.00,,,0.00,VWS V15.00,2014-03-03 05:20:00,
2014-03-03 00:22:00,24.3,12.4,30.01,NE,40,2.0,4.0,60,0.00,,,0.00,VWS V15.00,2014-03-03 05:22:00,
2014-03-03 00:27:00,24.3,12.8,30.01,NNE,26,5.0,9.0,61,0.00,,,0.00,VWS V15.00,2014-03-03 05:27:00,
2014-03-03 00:30:00,23.0,12.6,30.02,NW,319,0.0,6.0,64,0.00,,,0.00,VWS V15.00,2014-03-03 05:30:00,
2014-03-03 00:32:00,24.1,12.2,30.01,ENE,57,4.0,10.0,60,0.00,,,0.00,VWS V15.00,2014-03-03 05:32:00,
2014-03-03 00:37:00,23.9,12.4,30.01,NE,45,2.0,10.0,61,0.00,,,0.00,VWS V15.00,2014-03-03 05:37:00,
2014-03-03 00:40:00,22.9,12.6,30.02,NNE,12,2.0,7.0,64,0.00,,,0.00,VWS V15.00,2014-03-03 05:40:00,
2014-03-03 00:42:00,23.8,12.3,30.01,North,351,1.0,5.0,61,0.00,,,0.00,VWS V15.00,2014-03-03 05:42:00,
2014-03-03 00:47:00,23.8,12.7,30.01,NE,34,2.0,6.0,62,0.00,,,0.00,VWS V15.00,2014-03-03 05:47:00,
2014-03-03 00:50:00,22.7,12.4,30.02,WSW,248,6.0,8.0,64,0.00,,,0.00,VWS V15.00,2014-03-03 05:50:00,
2014-03-03 00:52:00,23.7,12.6,30.01,NE,51,4.0,7.0,62,0.00,,,0.00,VWS V15.00,2014-03-03 05:52:00,
2014-03-03 00:57:00,23.6,12.9,30.01,NE,36,11.0,11.0,63,0.00,,,0.00,VWS V15.00,2014-03-03 05:57:00,
2014-03-03 01:00:00,22.4,11.7,30.02,NE,48,0.0,13.0,63,0.00,,,0.00,VWS V15.00,2014-03-03 06:00:00,
2014-03-03 01:02:00,23.5,12.4,30.01,NNW,330,8.0,9.0,62,0.00,,,0.00,VWS V15.00,2014-03-03 06:02:00,
2014-03-03 01:07:00,23.3,12.2,30.01,NE,42,1.0,9.0,62,0.00,,,0.00,VWS V15.00,2014-03-03 06:07:00,
2014-03-03 01:10:00,22.2,11.5,30.02,WNW,286,0.0,12.0,63,0.00,,,0.00,VWS V15.00,2014-03-03 06:10:00,
2014-03-03 01:12:00,23.2,12.5,30.01,North,10,2.0,7.0,63,0.00,,,0.00,VWS V15.00,2014-03-03 06:12:00,
2014-03-03 01:17:00,23.1,12.4,30.01,NNE,16,3.0,7.0,63,0.00,,,0.00,VWS V15.00,2014-03-03 06:17:00,
2014-03-03 01:20:00,22.0,11.7,30.02,NNE,18,2.0,10.0,64,0.00,,,0.00,VWS V15.00,2014-03-03 06:20:00,
2014-03-03 01:22:00,23.0,12.3,30.01,North,9,1.0,3.0,63,0.00,,,0.00,VWS V15.00,2014-03-03 06:22:00,
2014-03-03 01:27:00,23.0,12.3,30.01,North,9,2.0,5.0,63,0.00,,,0.00,VWS V15.00,2014-03-03 06:27:00,
2014-03-03 01:30:00,21.9,11.6,30.03,NE,47,0.0,7.0,64,0.00,,,0.00,VWS V15.00,2014-03-03 06:30:00,
2014-03-03 01:32:00,23.0,12.6,30.02,NW,319,2.0,2.0,64,0.00,,,0.00,VWS V15.00,2014-03-03 06:32:00,
2014-03-03 01:37:00,22.9,12.6,30.02,NNE,16,4.0,7.0,64,0.00,,,0.00,VWS V15.00,2014-03-03 06:37:00,
2014-03-03 01:40:00,21.6,12.7,30.03,North,355,11.0,11.0,68,0.00,,,0.00,VWS V15.00,2014-03-03 06:40:00,
2014-03-03 01:42:00,22.8,12.5,30.02,NNW,344,1.0,8.0,64,0.00,,,0.00,VWS V15.00,2014-03-03 06:42:00,
2014-03-03 01:47:00,22.8,12.5,30.02,NE,34,0.0,8.0,64,0.00,,,0.00,VWS V15.00,2014-03-03 06:47:00,
2014-03-03 01:50:00,21.1,12.5,30.03,North,9,2.0,11.0,69,0.00,,,0.00,VWS V15.00,2014-03-03 06:50:00,
2014-03-03 01:52:00,22.7,12.4,30.02,NNE,24,5.0,8.0,64,0.00,,,0.00,VWS V15.00,2014-03-03 06:52:00,
2014-03-03 01:57:00,22.5,11.8,30.02,NE,35,5.0,13.0,63,0.00,,,0.00,VWS V15.00,2014-03-03 06:57:00,
2014-03-03 02:00:00,20.7,11.1,30.02,NE,42,0.0,9.0,66,0.00,,,0.00,VWS V15.00,2014-03-03 07:00:00,
2014-03-03 02:02:00,22.4,11.7,30.02,North,5,2.0,3.0,63,0.00,,,0.00,VWS V15.00,2014-03-03 07:02:00,
2014-03-03 02:07:00,22.2,11.2,30.02,NE,44,2.0,12.0,62,0.00,,,0.00,VWS V15.00,2014-03-03 07:07:00,
2014-03-03 02:10:00,20.4,10.2,30.02,NNE,24,8.0,11.0,64,0.00,,,0.00,VWS V15.00,2014-03-03 07:10:00,
2014-03-03 02:12:00,22.2,11.5,30.02,North,350,1.0,2.0,63,0.00,,,0.00,VWS V15.00,2014-03-03 07:12:00,
2014-03-03 02:17:00,22.0,11.4,30.02,NNE,20,4.0,10.0,63,0.00,,,0.00,VWS V15.00,2014-03-03 07:17:00,
2014-03-03 02:20:00,20.3,10.1,30.02,NNE,32,3.0,8.0,64,0.00,,,0.00,VWS V15.00,2014-03-03 07:20:00,
2014-03-03 02:22:00,22.0,11.7,30.02,NNE,17,0.0,2.0,64,0.00,,,0.00,VWS V15.00,2014-03-03 07:22:00,
2014-03-03 02:27:00,22.0,11.7,30.02,NNE,13,1.0,3.0,64,0.00,,,0.00,VWS V15.00,2014-03-03 07:27:00,
2014-03-03 02:30:00,19.9,10.1,30.02,North,11,4.0,10.0,65,0.00,,,0.00,VWS V15.00,2014-03-03 07:30:00,
2014-03-03 02:32:00,21.9,12.0,30.03,NE,47,0.0,1.0,65,0.00,,,0.00,VWS V15.00,2014-03-03 07:32:00,
2014-03-03 02:37:00,21.8,12.2,30.03,NNW,344,0.0,10.0,66,0.00,,,0.00,VWS V15.00,2014-03-03 07:37:00,
2014-03-03 02:40:00,19.7,10.2,30.02,NNW,339,4.0,8.0,66,0.00,,,0.00,VWS V15.00,2014-03-03 07:40:00,
2014-03-03 02:42:00,21.6,12.7,30.03,NE,40,5.0,11.0,68,0.00,,,0.00,VWS V15.00,2014-03-03 07:42:00,
2014-03-03 02:47:00,21.3,12.7,30.03,NE,45,10.0,11.0,69,0.00,,,0.00,VWS V15.00,2014-03-03 07:47:00,
2014-03-03 02:50:00,18.8,10.0,30.03,NE,38,1.0,15.0,68,0.00,,,0.00,VWS V15.00,2014-03-03 07:50:00,
2014-03-03 02:52:00,21.0,12.4,30.03,NE,40,3.0,4.0,69,0.00,,,0.00,VWS V15.00,2014-03-03 07:52:00,
2014-03-03 02:57:00,20.8,11.2,30.03,NNW,346,2.0,8.0,66,0.00,,,0.00,VWS V15.00,2014-03-03 07:57:00,
2014-03-03 03:00:00,18.0,8.6,30.04,NW,305,6.0,17.0,66,0.00,,,0.00,VWS V15.00,2014-03-03 08:00:00,
2014-03-03 03:02:00,20.6,10.7,30.02,North,5,1.0,4.0,65,0.00,,,0.00,VWS V15.00,2014-03-03 08:02:00,
2014-03-03 03:07:00,20.5,10.3,30.02,NE,52,6.0,11.0,64,0.00,,,0.00,VWS V15.00,2014-03-03 08:07:00,
2014-03-03 03:10:00,17.6,3.0,30.04,NNW,348,4.0,14.0,52,0.00,,,0.00,VWS V15.00,2014-03-03 08:10:00,
2014-03-03 03:12:00,20.3,10.1,30.02,NE,50,6.0,8.0,64,0.00,,,0.00,VWS V15.00,2014-03-03 08:12:00,
2014-03-03 03:17:00,20.3,10.1,30.02,North,5,6.0,8.0,64,0.00,,,0.00,VWS V15.00,2014-03-03 08:17:00,
2014-03-03 03:20:00,17.3,1.9,30.05,NE,38,6.0,23.0,50,0.00,,,0.00,VWS V15.00,2014-03-03 08:20:00,
2014-03-03 03:22:00,20.2,10.3,30.02,NNE,28,7.0,7.0,65,0.00,,,0.00,VWS V15.00,2014-03-03 08:22:00,
2014-03-03 03:27:00,20.1,10.2,30.02,NNE,16,3.0,8.0,65,0.00,,,0.00,VWS V15.00,2014-03-03 08:27:00,
2014-03-03 03:30:00,17.2,2.2,30.05,NNW,347,6.0,11.0,51,0.00,,,0.00,VWS V15.00,2014-03-03 08:30:00,
2014-03-03 03:32:00,19.8,9.9,30.02,North,10,1.0,4.0,65,0.00,,,0.00,VWS V15.00,2014-03-03 08:32:00,
2014-03-03 03:37:00,19.7,9.9,30.02,NW,321,3.0,8.0,65,0.00,,,0.00,VWS V15.00,2014-03-03 08:37:00,
2014-03-03 03:40:00,17.0,2.8,30.05,NNE,30,4.0,6.0,53,0.00,,,0.00,VWS V15.00,2014-03-03 08:40:00,
2014-03-03 03:42:00,19.7,10.2,30.02,NE,34,4.0,7.0,66,0.00,,,0.00,VWS V15.00,2014-03-03 08:42:00,
2014-03-03 03:47:00,19.3,10.1,30.03,NE,46,2.0,15.0,67,0.00,,,0.00,VWS V15.00,2014-03-03 08:47:00,
2014-03-03 03:50:00,17.0,3.6,30.05,NNE,22,6.0,8.0,55,0.00,,,0.00,VWS V15.00,2014-03-03 08:50:00,
2014-03-03 03:52:00,18.6,10.1,30.03,WNW,302,3.0,3.0,69,0.00,,,0.00,VWS V15.00,2014-03-03 08:52:00,
2014-03-03 03:57:00,18.2,9.8,30.03,ENE,63,5.0,17.0,69,0.00,,,0.00,VWS V15.00,2014-03-03 08:57:00,
2014-03-03 04:00:00,16.8,3.8,30.05,NE,37,3.0,11.0,56,0.00,,,0.00,VWS V15.00,2014-03-03 09:00:00,
2014-03-03 04:02:00,17.9,7.8,30.04,NE,42,4.0,6.0,64,0.00,,,0.00,VWS V15.00,2014-03-03 09:02:00,
2014-03-03 04:07:00,17.7,4.3,30.04,NE,38,8.0,14.0,55,0.00,,,0.00,VWS V15.00,2014-03-03 09:07:00,
2014-03-03 04:10:00,16.7,4.5,30.05,NW,326,4.0,11.0,58,0.00,,,0.00,VWS V15.00,2014-03-03 09:10:00,
2014-03-03 04:12:00,17.6,3.0,30.04,NNE,28,11.0,23.0,52,0.00,,,0.00,VWS V15.00,2014-03-03 09:12:00,
2014-03-03 04:17:00,17.5,2.5,30.05,NNE,13,1.0,23.0,51,0.00,,,0.00,VWS V15.00,2014-03-03 09:17:00,
2014-03-03 04:20:00,16.4,4.2,30.06,NE,43,10.0,10.0,58,0.00,,,0.00,VWS V15.00,2014-03-03 09:20:00,
2014-03-03 04:22:00,17.3,1.9,30.05,West,271,4.0,6.0,50,0.00,,,0.00,VWS V15.00,2014-03-03 09:22:00,
2014-03-03 04:27:00,17.2,1.8,30.05,East,88,0.0,10.0,50,0.00,,,0.00,VWS V15.00,2014-03-03 09:27:00,
2014-03-03 04:30:00,16.2,4.8,30.07,NE,40,5.0,12.0,60,0.00,,,0.00,VWS V15.00,2014-03-03 09:30:00,
2014-03-03 04:32:00,17.1,2.1,30.05,NE,50,2.0,6.0,51,0.00,,,0.00,VWS V15.00,2014-03-03 09:32:00,
2014-03-03 04:37:00,17.1,2.5,30.05,NNE,19,2.0,6.0,52,0.00,,,0.00,VWS V15.00,2014-03-03 09:37:00,
2014-03-03 04:40:00,16.0,4.6,30.07,NE,34,4.0,10.0,60,0.00,,,0.00,VWS V15.00,2014-03-03 09:40:00,
2014-03-03 04:42:00,17.0,2.8,30.05,NNE,30,2.0,4.0,53,0.00,,,0.00,VWS V15.00,2014-03-03 09:42:00,
2014-03-03 04:47:00,17.0,3.6,30.05,NE,37,5.0,7.0,55,0.00,,,0.00,VWS V15.00,2014-03-03 09:47:00,
2014-03-03 04:50:00,15.9,4.8,30.08,NE,43,2.0,8.0,61,0.00,,,0.00,VWS V15.00,2014-03-03 09:50:00,
2014-03-03 04:52:00,17.0,3.6,30.05,NNE,22,7.0,11.0,55,0.00,,,0.00,VWS V15.00,2014-03-03 09:52:00,
2014-03-03 04:56:00,16.9,3.9,30.05,ENE,67,5.0,11.0,56,0.00,,,0.00,VWS V15.00,2014-03-03 09:56:00,
2014-03-03 05:00:00,15.7,4.7,30.09,NNE,13,1.0,11.0,61,0.00,,,0.00,VWS V15.00,2014-03-03 10:00:00,
2014-03-03 05:02:00,16.8,3.8,30.05,NNE,24,1.0,3.0,56,0.00,,,0.00,VWS V15.00,2014-03-03 10:02:00,
2014-03-03 05:07:00,16.8,4.2,30.05,NW,325,2.0,7.0,57,0.00,,,0.00,VWS V15.00,2014-03-03 10:07:00,
2014-03-03 05:10:00,15.5,4.8,30.09,NNE,33,6.0,7.0,62,0.00,,,0.00,VWS V15.00,2014-03-03 10:10:00,
2014-03-03 05:11:00,16.7,4.1,30.05,NNE,29,9.0,9.0,57,0.00,,,0.00,VWS V15.00,2014-03-03 10:11:00,
2014-03-03 05:16:00,16.6,4.4,30.06,NNE,19,6.0,9.0,58,0.00,,,0.00,VWS V15.00,2014-03-03 10:16:00,
2014-03-03 05:20:00,15.3,4.6,30.10,NE,40,4.0,13.0,62,0.00,,,0.00,VWS V15.00,2014-03-03 10:20:00,
2014-03-03 05:21:00,16.4,4.2,30.06,NE,40,10.0,12.0,58,0.00,,,0.00,VWS V15.00,2014-03-03 10:21:00,
2014-03-03 05:26:00,16.2,4.8,30.06,NNE,25,4.0,12.0,60,0.00,,,0.00,VWS V15.00,2014-03-03 10:26:00,
2014-03-03 05:30:00,15.0,4.3,30.10,NNE,14,2.0,13.0,62,0.00,,,0.00,VWS V15.00,2014-03-03 10:30:00,
2014-03-03 05:31:00,16.2,4.4,30.07,North,5,8.0,9.0,59,0.00,,,0.00,VWS V15.00,2014-03-03 10:31:00,
2014-03-03 05:36:00,16.1,4.7,30.07,NNE,29,10.0,10.0,60,0.00,,,0.00,VWS V15.00,2014-03-03 10:36:00,
2014-03-03 05:40:00,14.7,4.1,30.10,NE,42,6.0,9.0,62,0.00,,,0.00,VWS V15.00,2014-03-03 10:40:00,
2014-03-03 05:41:00,16.0,4.6,30.07,NE,35,1.0,4.0,60,0.00,,,0.00,VWS V15.00,2014-03-03 10:41:00,
2014-03-03 05:46:00,16.0,4.9,30.08,NE,49,3.0,7.0,61,0.00,,,0.00,VWS V15.00,2014-03-03 10:46:00,
2014-03-03 05:50:00,14.4,3.8,30.10,ESE,119,0.0,8.0,62,0.00,,,0.00,VWS V15.00,2014-03-03 10:50:00,
2014-03-03 05:51:00,15.9,4.8,30.08,WSW,237,3.0,3.0,61,0.00,,,0.00,VWS V15.00,2014-03-03 10:51:00,
2014-03-03 05:56:00,15.8,4.8,30.08,NNE,31,2.0,11.0,61,0.00,,,0.00,VWS V15.00,2014-03-03 10:56:00,
2014-03-03 06:00:00,14.1,3.1,30.11,WSW,251,1.0,12.0,61,0.00,,,0.00,VWS V15.00,2014-03-03 11:00:00,
2014-03-03 06:01:00,15.7,4.7,30.09,North,350,2.0,6.0,61,0.00,,,0.00,VWS V15.00,2014-03-03 11:01:00,
2014-03-03 06:06:00,15.6,4.6,30.09,NNE,31,2.0,7.0,61,0.00,,,0.00,VWS V15.00,2014-03-03 11:06:00,
2014-03-03 06:10:00,14.0,3.4,30.11,East,94,2.0,8.0,62,0.00,,,0.00,VWS V15.00,2014-03-03 11:10:00,
2014-03-03 06:11:00,15.5,4.8,30.09,NE,34,6.0,13.0,62,0.00,,,0.00,VWS V15.00,2014-03-03 11:11:00,
2014-03-03 06:16:00,15.4,4.7,30.10,NW,321,0.0,13.0,62,0.00,,,0.00,VWS V15.00,2014-03-03 11:16:00,
2014-03-03 06:20:00,13.9,3.3,30.12,NNW,328,4.0,11.0,62,0.00,,,0.00,VWS V15.00,2014-03-03 11:20:00,
2014-03-03 06:21:00,15.3,4.6,30.10,NE,40,0.0,4.0,62,0.00,,,0.00,VWS V15.00,2014-03-03 11:21:00,
2014-03-03 06:26:00,15.1,4.4,30.10,NNE,30,13.0,13.0,62,0.00,,,0.00,VWS V15.00,2014-03-03 11:26:00,
2014-03-03 06:30:00,13.8,3.2,30.13,WNW,284,1.0,11.0,62,0.00,,,0.00,VWS V15.00,2014-03-03 11:30:00,
2014-03-03 06:31:00,15.0,4.3,30.10,NNE,24,3.0,7.0,62,0.00,,,0.00,VWS V15.00,2014-03-03 11:31:00,
2014-03-03 06:36:00,14.8,4.2,30.10,NE,38,5.0,8.0,62,0.00,,,0.00,VWS V15.00,2014-03-03 11:36:00,
2014-03-03 06:40:00,13.8,3.2,30.13,WNW,284,3.0,10.0,62,0.00,,,0.00,VWS V15.00,2014-03-03 11:40:00,
2014-03-03 06:41:00,14.6,4.0,30.10,NE,44,3.0,7.0,62,0.00,,,0.00,VWS V15.00,2014-03-03 11:41:00,
2014-03-03 06:46:00,14.5,3.9,30.10,ENE,73,7.0,7.0,62,0.00,,,0.00,VWS V15.00,2014-03-03 11:46:00,
2014-03-03 06:50:00,13.9,3.6,30.14,NE,34,4.0,6.0,63,0.00,,,0.00,VWS V15.00,2014-03-03 11:50:00,
2014-03-03 06:51:00,14.3,3.7,30.10,NNE,27,3.0,4.0,62,0.00,,,0.00,VWS V15.00,2014-03-03 11:51:00,
2014-03-03 06:56:00,14.2,3.2,30.10,NNE,26,11.0,12.0,61,0.00,,,0.00,VWS V15.00,2014-03-03 11:56:00,
2014-03-03 07:00:00,13.9,3.3,30.13,North,355,0.0,10.0,62,0.00,,,0.00,VWS V15.00,2014-03-03 12:00:00,
2014-03-03 07:01:00,14.0,3.0,30.11,NE,43,3.0,5.0,61,0.00,,,0.00,VWS V15.00,2014-03-03 12:01:00,
2014-03-03 07:06:00,14.0,3.0,30.11,NE,44,0.0,8.0,61,0.00,,,0.00,VWS V15.00,2014-03-03 12:06:00,
2014-03-03 07:10:00,13.6,2.7,30.13,NNE,30,3.0,11.0,61,0.00,,,0.00,VWS V15.00,2014-03-03 12:10:00,
2014-03-03 07:11:00,14.0,3.4,30.11,NNW,329,3.0,5.0,62,0.00,,,0.00,VWS V15.00,2014-03-03 12:11:00,
2014-03-03 07:16:00,13.9,3.3,30.12,WNW,296,8.0,11.0,62,0.00,,,0.00,VWS V15.00,2014-03-03 12:16:00,
2014-03-03 07:20:00,13.7,3.1,30.14,NNE,22,10.0,11.0,62,0.00,,,0.00,VWS V15.00,2014-03-03 12:20:00,
2014-03-03 07:21:00,13.9,3.3,30.12,NE,47,0.0,6.0,62,0.00,,,0.00,VWS V15.00,2014-03-03 12:21:00,
2014-03-03 07:26:00,13.8,3.2,30.12,NNE,26,3.0,8.0,62,0.00,,,0.00,VWS V15.00,2014-03-03 12:26:00,
2014-03-03 07:30:00,13.7,3.1,30.15,NE,38,0.0,10.0,62,0.00,,,0.00,VWS V15.00,2014-03-03 12:30:00,
2014-03-03 07:31:00,13.8,3.2,30.13,NNE,18,2.0,3.0,62,0.00,,,0.00,VWS V15.00,2014-03-03 12:31:00,
2014-03-03 07:36:00,13.8,3.2,30.13,NNW,329,3.0,8.0,62,0.00,,,0.00,VWS V15.00,2014-03-03 12:36:00,
2014-03-03 07:40:00,13.9,3.0,30.15,NE,38,3.0,9.0,61,0.00,,,0.00,VWS V15.00,2014-03-03 12:40:00,
2014-03-03 07:41:00,13.8,3.2,30.13,NNE,30,3.0,5.0,62,0.00,,,0.00,VWS V15.00,2014-03-03 12:41:00,
2014-03-03 07:46:00,13.8,3.5,30.14,NNE,27,4.0,6.0,63,0.00,,,0.00,VWS V15.00,2014-03-03 12:46:00,
2014-03-03 07:50:00,14.1,3.1,30.15,North,355,2.0,10.0,61,0.00,,,0.00,VWS V15.00,2014-03-03 12:50:00,
2014-03-03 07:51:00,14.0,3.7,30.14,NNE,14,9.0,9.0,63,0.00,,,0.00,VWS V15.00,2014-03-03 12:51:00,
2014-03-03 07:56:00,13.9,3.3,30.14,North,351,5.0,9.0,62,0.00,,,0.00,VWS V15.00,2014-03-03 12:56:00,
2014-03-03 08:00:00,14.2,3.2,30.14,NNE,22,3.0,10.0,61,0.00,,,0.00,VWS V15.00,2014-03-03 13:00:00,
2014-03-03 08:01:00,13.8,3.2,30.13,NNE,15,10.0,10.0,62,0.00,,,0.00,VWS V15.00,2014-03-03 13:01:00,
2014-03-03 08:06:00,13.6,2.3,30.13,NNE,21,1.0,11.0,60,0.00,,,0.00,VWS V15.00,2014-03-03 13:06:00,
2014-03-03 08:10:00,14.4,3.1,30.14,NE,38,0.0,7.0,60,0.00,,,0.00,VWS V15.00,2014-03-03 13:10:00,
2014-03-03 08:11:00,13.6,2.7,30.13,NNE,26,7.0,7.0,61,0.00,,,0.00,VWS V15.00,2014-03-03 13:11:00,
2014-03-03 08:16:00,13.6,3.0,30.14,NNE,31,3.0,7.0,62,0.00,,,0.00,VWS V15.00,2014-03-03 13:16:00,
2014-03-03 08:18:00,13.7,2.8,30.14,NE,42,1.0,7.0,61,0.00,,,0.00,VWS V15.00,2014-03-03 13:18:00,
2014-03-03 08:20:00,14.7,2.6,30.16,NE,36,5.0,12.0,58,0.00,,,0.00,VWS V15.00,2014-03-03 13:20:00,
2014-03-03 08:23:00,13.7,2.8,30.14,NE,54,5.0,10.0,61,0.00,,,0.00,VWS V15.00,2014-03-03 13:23:00,
2014-03-03 08:28:00,13.7,3.1,30.14,NE,38,7.0,10.0,62,0.00,,,0.00,VWS V15.00,2014-03-03 13:28:00,
2014-03-03 08:30:00,14.7,3.0,30.15,NE,44,0.0,5.0,59,0.00,,,0.00,VWS V15.00,2014-03-03 13:30:00,
2014-03-03 08:33:00,13.8,3.2,30.15,NNE,25,3.0,8.0,62,0.00,,,0.00,VWS V15.00,2014-03-03 13:33:00,
2014-03-03 08:38:00,13.9,3.3,30.15,NE,55,4.0,8.0,62,0.00,,,0.00,VWS V15.00,2014-03-03 13:38:00,
2014-03-03 08:40:00,15.2,3.5,30.15,NW,306,2.0,5.0,59,0.00,,,0.00,VWS V15.00,2014-03-03 13:40:00,
2014-03-03 08:43:00,13.9,3.0,30.15,NNE,28,2.0,3.0,61,0.00,,,0.00,VWS V15.00,2014-03-03 13:43:00,
2014-03-03 08:48:00,14.1,3.5,30.15,NE,34,5.0,10.0,62,0.00,,,0.00,VWS V15.00,2014-03-03 13:48:00,
2014-03-03 08:50:00,15.7,3.6,30.16,NE,36,1.0,6.0,58,0.00,,,0.00,VWS V15.00,2014-03-03 13:50:00,
2014-03-03 08:53:00,14.1,3.1,30.15,NW,304,3.0,6.0,61,0.00,,,0.00,VWS V15.00,2014-03-03 13:53:00,
2014-03-03 08:58:00,14.2,2.9,30.15,NE,34,2.0,10.0,60,0.00,,,0.00,VWS V15.00,2014-03-03 13:58:00,
2014-03-03 09:00:00,15.5,3.4,30.17,NNE,28,2.0,8.0,58,0.00,,,0.00,VWS V15.00,2014-03-03 14:00:00,
2014-03-03 09:03:00,14.2,2.9,30.14,NNE,32,1.0,4.0,60,0.00,,,0.00,VWS V15.00,2014-03-03 14:03:00,
2014-03-03 09:08:00,14.4,2.7,30.14,NNW,336,0.0,7.0,59,0.00,,,0.00,VWS V15.00,2014-03-03 14:08:00,
2014-03-03 09:10:00,15.7,3.9,30.17,NE,34,1.0,5.0,59,0.00,,,0.00,VWS V15.00,2014-03-03 14:10:00,
2014-03-03 09:13:00,14.5,2.8,30.14,NW,306,4.0,5.0,59,0.00,,,0.00,VWS V15.00,2014-03-03 14:13:00,
2014-03-03 09:18:00,14.7,3.0,30.16,NE,45,8.0,8.0,59,0.00,,,0.00,VWS V15.00,2014-03-03 14:18:00,
2014-03-03 09:20:00,15.9,3.8,30.16,North,355,0.0,7.0,58,0.00,,,0.00,VWS V15.00,2014-03-03 14:20:00,
2014-03-03 09:23:00,14.7,3.0,30.16,NE,35,1.0,5.0,59,0.00,,,0.00,VWS V15.00,2014-03-03 14:23:00,
2014-03-03 09:28:00,14.7,3.0,30.16,NE,56,2.0,5.0,59,0.00,,,0.00,VWS V15.00,2014-03-03 14:28:00,
2014-03-03 09:30:00,16.3,3.8,30.17,North,5,0.0,10.0,57,0.00,,,0.00,VWS V15.00,2014-03-03 14:30:00,
2014-03-03 09:33:00,14.8,3.1,30.15,NE,44,1.0,1.0,59,0.00,,,0.00,VWS V15.00,2014-03-03 14:33:00,
2014-03-03 09:38:00,15.0,3.3,30.15,NNE,13,5.0,5.0,59,0.00,,,0.00,VWS V15.00,2014-03-03 14:38:00,
2014-03-03 09:40:00,16.4,3.8,30.17,NNW,328,3.0,8.0,57,0.00,,,0.00,VWS V15.00,2014-03-03 14:40:00,
2014-03-03 09:43:00,15.3,3.9,30.15,NW,312,0.0,2.0,60,0.00,,,0.00,VWS V15.00,2014-03-03 14:43:00,
2014-03-03 09:48:00,15.6,3.8,30.16,NNW,340,2.0,6.0,59,0.00,,,0.00,VWS V15.00,2014-03-03 14:48:00,
2014-03-03 09:50:00,16.1,3.2,30.17,NNE,32,0.0,10.0,56,0.00,,,0.00,VWS V15.00,2014-03-03 14:50:00,
2014-03-03 09:52:00,15.6,3.5,30.16,NW,311,0.0,3.0,58,0.00,,,0.00,VWS V15.00,2014-03-03 14:52:00,
2014-03-03 09:57:00,15.5,3.4,30.16,NE,41,2.0,8.0,58,0.00,,,0.00,VWS V15.00,2014-03-03 14:57:00,
2014-03-03 10:00:00,16.1,3.2,30.17,NE,41,4.0,8.0,56,0.00,,,0.00,VWS V15.00,2014-03-03 15:00:00,
2014-03-03 10:02:00,15.4,3.3,30.17,NE,36,1.0,5.0,58,0.00,,,0.00,VWS V15.00,2014-03-03 15:02:00,
2014-03-03 10:07:00,15.5,3.4,30.17,NE,34,0.0,5.0,58,0.00,,,0.00,VWS V15.00,2014-03-03 15:07:00,
2014-03-03 10:10:00,15.6,2.7,30.17,North,360,3.0,6.0,56,0.00,,,0.00,VWS V15.00,2014-03-03 15:10:00,
2014-03-03 10:12:00,15.8,4.0,30.17,NE,34,1.0,3.0,59,0.00,,,0.00,VWS V15.00,2014-03-03 15:12:00,
2014-03-03 10:17:00,15.9,3.4,30.16,North,5,2.0,7.0,57,0.00,,,0.00,VWS V15.00,2014-03-03 15:17:00,
2014-03-03 10:20:00,15.2,2.7,30.17,NNE,17,2.0,9.0,57,0.00,,,0.00,VWS V15.00,2014-03-03 15:20:00,
2014-03-03 10:22:00,16.0,3.5,30.16,NW,304,0.0,4.0,57,0.00,,,0.00,VWS V15.00,2014-03-03 15:22:00,
2014-03-03 10:27:00,16.2,3.7,30.16,NW,321,10.0,10.0,57,0.00,,,0.00,VWS V15.00,2014-03-03 15:27:00,
2014-03-03 10:30:00,15.3,2.4,30.18,NNE,26,1.0,6.0,56,0.00,,,0.00,VWS V15.00,2014-03-03 15:30:00,
2014-03-03 10:32:00,16.4,3.8,30.17,NNW,341,0.0,3.0,57,0.00,,,0.00,VWS V15.00,2014-03-03 15:32:00,
2014-03-03 10:37:00,16.4,3.5,30.17,North,360,2.0,4.0,56,0.00,,,0.00,VWS V15.00,2014-03-03 15:37:00,
2014-03-03 10:40:00,15.3,2.4,30.18,NE,54,4.0,10.0,56,0.00,,,0.00,VWS V15.00,2014-03-03 15:40:00,
2014-03-03 10:42:00,16.4,3.5,30.17,NNE,17,2.0,7.0,56,0.00,,,0.00,VWS V15.00,2014-03-03 15:42:00,
2014-03-03 10:47:00,16.2,3.3,30.17,North,11,2.0,10.0,56,0.00,,,0.00,VWS V15.00,2014-03-03 15:47:00,
2014-03-03 10:50:00,15.1,2.2,30.17,NE,50,1.0,8.0,56,0.00,,,0.00,VWS V15.00,2014-03-03 15:50:00,
2014-03-03 10:52:00,16.1,3.6,30.17,NE,42,2.0,3.0,57,0.00,,,0.00,VWS V15.00,2014-03-03 15:52:00,
2014-03-03 10:57:00,16.2,4.0,30.17,NW,321,3.0,7.0,58,0.00,,,0.00,VWS V15.00,2014-03-03 15:57:00,
2014-03-03 11:00:00,15.2,2.7,30.18,WNW,300,1.0,8.0,57,0.00,,,0.00,VWS V15.00,2014-03-03 16:00:00,
2014-03-03 11:02:00,16.0,3.1,30.17,NNW,341,2.0,6.0,56,0.00,,,0.00,VWS V15.00,2014-03-03 16:02:00,
2014-03-03 11:07:00,15.7,2.8,30.17,NE,34,1.0,6.0,56,0.00,,,0.00,VWS V15.00,2014-03-03 16:07:00,
2014-03-03 11:10:00,15.1,2.2,30.18,NE,34,3.0,11.0,56,0.00,,,0.00,VWS V15.00,2014-03-03 16:10:00,
2014-03-03 11:12:00,15.5,2.6,30.17,NE,46,2.0,9.0,56,0.00,,,0.00,VWS V15.00,2014-03-03 16:12:00,
2014-03-03 11:17:00,15.3,2.4,30.17,NE,46,4.0,9.0,56,0.00,,,0.00,VWS V15.00,2014-03-03 16:17:00,
2014-03-03 11:20:00,15.2,2.3,30.18,NNW,327,1.0,9.0,56,0.00,,,0.00,VWS V15.00,2014-03-03 16:20:00,
2014-03-03 11:22:00,15.2,2.3,30.17,NNE,28,0.0,4.0,56,0.00,,,0.00,VWS V15.00,2014-03-03 16:22:00,
2014-03-03 11:27:00,15.3,2.4,30.17,NW,321,3.0,4.0,56,0.00,,,0.00,VWS V15.00,2014-03-03 16:27:00,
2014-03-03 11:30:00,15.4,2.5,30.18,NNE,32,4.0,11.0,56,0.00,,,0.00,VWS V15.00,2014-03-03 16:30:00,
2014-03-03 11:32:00,15.4,2.5,30.18,NNE,24,4.0,4.0,56,0.00,,,0.00,VWS V15.00,2014-03-03 16:32:00,
2014-03-03 11:37:00,15.4,2.5,30.18,NNE,26,4.0,10.0,56,0.00,,,0.00,VWS V15.00,2014-03-03 16:37:00,
2014-03-03 11:40:00,15.6,2.7,30.18,ENE,64,3.0,8.0,56,0.00,,,0.00,VWS V15.00,2014-03-03 16:40:00,
2014-03-03 11:42:00,15.2,2.3,30.18,NNE,18,2.0,7.0,56,0.00,,,0.00,VWS V15.00,2014-03-03 16:42:00,
2014-03-03 11:47:00,15.1,2.2,30.17,NE,38,0.0,8.0,56,0.00,,,0.00,VWS V15.00,2014-03-03 16:47:00,
2014-03-03 11:50:00,16.2,2.9,30.17,NE,42,3.0,8.0,55,0.00,,,0.00,VWS V15.00,2014-03-03 16:50:00,
2014-03-03 11:52:00,15.1,2.2,30.17,WNW,288,1.0,6.0,56,0.00,,,0.00,VWS V15.00,2014-03-03 16:52:00,
2014-03-03 11:57:00,15.1,2.2,30.17,NNE,28,4.0,6.0,56,0.00,,,0.00,VWS V15.00,2014-03-03 16:57:00,
2014-03-03 12:00:00,16.5,3.5,30.17,North,360,7.0,7.0,56,0.00,,,0.00,VWS V15.00,2014-03-03 17:00:00,
2014-03-03 12:02:00,15.2,2.7,30.18,SW,224,1.0,3.0,57,0.00,,,0.00,VWS V15.00,2014-03-03 17:02:00,
2014-03-03 12:07:00,15.1,1.9,30.18,NE,35,3.0,11.0,55,0.00,,,0.00,VWS V15.00,2014-03-03 17:07:00,
2014-03-03 12:10:00,16.8,3.8,30.17,NNW,337,3.0,9.0,56,0.00,,,0.00,VWS V15.00,2014-03-03 17:10:00,
2014-03-03 12:12:00,15.1,2.2,30.18,ENE,69,0.0,5.0,56,0.00,,,0.00,VWS V15.00,2014-03-03 17:12:00,
2014-03-03 12:17:00,15.1,2.2,30.18,North,351,1.0,9.0,56,0.00,,,0.00,VWS V15.00,2014-03-03 17:17:00,
2014-03-03 12:20:00,16.9,3.9,30.16,NNW,333,1.0,8.0,56,0.00,,,0.00,VWS V15.00,2014-03-03 17:20:00,
2014-03-03 12:22:00,15.3,2.8,30.18,NE,34,3.0,6.0,57,0.00,,,0.00,VWS V15.00,2014-03-03 17:22:00,
2014-03-03 12:27:00,15.4,2.5,30.18,NNW,347,0.0,8.0,56,0.00,,,0.00,VWS V15.00,2014-03-03 17:27:00,
2014-03-03 12:30:00,16.8,3.8,30.16,NW,307,2.0,9.0,56,0.00,,,0.00,VWS V15.00,2014-03-03 17:30:00,
2014-03-03 12:32:00,15.3,2.4,30.18,NNE,18,0.0,5.0,56,0.00,,,0.00,VWS V15.00,2014-03-03 17:32:00,
2014-03-03 12:37:00,15.5,2.6,30.18,NE,46,7.0,8.0,56,0.00,,,0.00,VWS V15.00,2014-03-03 17:37:00,
2014-03-03 12:40:00,16.9,3.9,30.16,WNW,288,4.0,11.0,56,0.00,,,0.00,VWS V15.00,2014-03-03 17:40:00,
2014-03-03 12:42:00,15.7,2.8,30.18,NE,51,1.0,8.0,56,0.00,,,0.00,VWS V15.00,2014-03-03 17:42:00,
2014-03-03 12:47:00,16.1,3.2,30.17,NNE,20,0.0,8.0,56,0.00,,,0.00,VWS V15.00,2014-03-03 17:47:00,
2014-03-03 12:50:00,17.0,3.6,30.16,NNW,331,1.0,5.0,55,0.00,,,0.00,VWS V15.00,2014-03-03 17:50:00,
2014-03-03 12:52:00,16.3,3.4,30.17,NNE,17,1.0,7.0,56,0.00,,,0.00,VWS V15.00,2014-03-03 17:52:00,
2014-03-03 12:57:00,16.4,3.5,30.17,North,5,1.0,7.0,56,0.00,,,0.00,VWS V15.00,2014-03-03 17:57:00,
2014-03-03 13:00:00,17.1,3.7,30.17,NE,53,4.0,11.0,55,0.00,,,0.00,VWS V15.00,2014-03-03 18:00:00,
2014-03-03 13:02:00,16.5,3.5,30.17,NE,53,3.0,7.0,56,0.00,,,0.00,VWS V15.00,2014-03-03 18:02:00,
2014-03-03 13:07:00,16.6,3.7,30.17,WNW,293,3.0,9.0,56,0.00,,,0.00,VWS V15.00,2014-03-03 18:07:00,
2014-03-03 13:10:00,17.0,3.6,30.17,NNW,348,3.0,9.0,55,0.00,,,0.00,VWS V15.00,2014-03-03 18:10:00,
2014-03-03 13:12:00,17.0,4.4,30.17,NNE,29,1.0,7.0,57,0.00,,,0.00,VWS V15.00,2014-03-03 18:12:00,
2014-03-03 13:17:00,16.8,3.5,30.16,NNW,336,0.0,8.0,55,0.00,,,0.00,VWS V15.00,2014-03-03 18:17:00,
2014-03-03 13:20:00,17.3,4.3,30.17,NNW,342,2.0,7.0,56,0.00,,,0.00,VWS V15.00,2014-03-03 18:20:00,
2014-03-03 13:22:00,16.9,3.9,30.16,SSW,197,2.0,4.0,56,0.00,,,0.00,VWS V15.00,2014-03-03 18:22:00,
2014-03-03 13:27:00,16.8,3.8,30.16,NW,323,0.0,9.0,56,0.00,,,0.00,VWS V15.00,2014-03-03 18:27:00,
2014-03-03 13:30:00,17.5,3.7,30.17,NNW,332,1.0,14.0,54,0.00,,,0.00,VWS V15.00,2014-03-03 18:30:00,
2014-03-03 13:32:00,16.9,3.9,30.16,NE,36,4.0,4.0,56,0.00,,,0.00,VWS V15.00,2014-03-03 18:32:00,
2014-03-03 13:37:00,16.9,3.9,30.16,NW,306,1.0,5.0,56,0.00,,,0.00,VWS V15.00,2014-03-03 18:37:00,
2014-03-03 13:40:00,17.8,4.4,30.17,NNW,327,0.0,8.0,55,0.00,,,0.00,VWS V15.00,2014-03-03 18:40:00,
2014-03-03 13:42:00,16.9,3.9,30.16,NNW,340,2.0,5.0,56,0.00,,,0.00,VWS V15.00,2014-03-03 18:42:00,
2014-03-03 13:47:00,16.9,3.9,30.16,NW,318,0.0,5.0,56,0.00,,,0.00,VWS V15.00,2014-03-03 18:47:00,
2014-03-03 13:50:00,18.0,4.2,30.18,NE,37,5.0,10.0,54,0.00,,,0.00,VWS V15.00,2014-03-03 18:50:00,
2014-03-03 13:52:00,17.0,3.6,30.16,NNW,331,1.0,2.0,55,0.00,,,0.00,VWS V15.00,2014-03-03 18:52:00,
2014-03-03 13:57:00,17.1,3.7,30.16,NNW,346,1.0,9.0,55,0.00,,,0.00,VWS V15.00,2014-03-03 18:57:00,
2014-03-03 14:00:00,18.2,4.0,30.19,NNE,16,4.0,7.0,53,0.00,,,0.00,VWS V15.00,2014-03-03 19:00:00,
2014-03-03 14:02:00,17.1,3.7,30.17,NNE,26,3.0,7.0,55,0.00,,,0.00,VWS V15.00,2014-03-03 19:02:00,
2014-03-03 14:07:00,17.0,3.6,30.17,North,5,2.0,7.0,55,0.00,,,0.00,VWS V15.00,2014-03-03 19:07:00,
2014-03-03 14:10:00,18.4,4.1,30.19,NNE,24,1.0,9.0,53,0.00,,,0.00,VWS V15.00,2014-03-03 19:10:00,
2014-03-03 14:12:00,17.0,3.6,30.17,East,86,1.0,3.0,55,0.00,,,0.00,VWS V15.00,2014-03-03 19:12:00,
2014-03-03 14:17:00,17.1,4.1,30.17,NNW,335,2.0,7.0,56,0.00,,,0.00,VWS V15.00,2014-03-03 19:17:00,
2014-03-03 14:20:00,18.5,4.2,30.18,NNE,19,2.0,8.0,53,0.00,,,0.00,VWS V15.00,2014-03-03 19:20:00,
2014-03-03 14:22:00,17.4,4.4,30.17,NE,53,2.0,3.0,56,0.00,,,0.00,VWS V15.00,2014-03-03 19:22:00,
2014-03-03 14:27:00,17.5,3.7,30.17,WNW,293,4.0,14.0,54,0.00,,,0.00,VWS V15.00,2014-03-03 19:27:00,
2014-03-03 14:30:00,18.8,4.1,30.18,NNE,17,1.0,13.0,52,0.00,,,0.00,VWS V15.00,2014-03-03 19:30:00,
2014-03-03 14:32:00,17.5,4.1,30.17,North,5,2.0,4.0,55,0.00,,,0.00,VWS V15.00,2014-03-03 19:32:00,
2014-03-03 14:37:00,17.7,3.9,30.17,NNE,28,5.0,8.0,54,0.00,,,0.00,VWS V15.00,2014-03-03 19:37:00,
2014-03-03 14:40:00,18.8,4.1,30.18,NE,44,10.0,10.0,52,0.00,,,0.00,VWS V15.00,2014-03-03 19:40:00,
2014-03-03 14:42:00,17.9,4.5,30.17,NE,51,2.0,7.0,55,0.00,,,0.00,VWS V15.00,2014-03-03 19:42:00,
2014-03-03 14:47:00,17.9,4.1,30.18,North,360,3.0,10.0,54,0.00,,,0.00,VWS V15.00,2014-03-03 19:47:00,
2014-03-03 14:50:00,18.7,4.0,30.18,NE,46,2.0,10.0,52,0.00,,,0.00,VWS V15.00,2014-03-03 19:50:00,
2014-03-03 14:52:00,18.0,4.2,30.18,NE,44,4.0,5.0,54,0.00,,,0.00,VWS V15.00,2014-03-03 19:52:00,
2014-03-03 14:57:00,18.1,4.7,30.18,NE,40,3.0,7.0,55,0.00,,,0.00,VWS V15.00,2014-03-03 19:57:00,
2014-03-03 15:00:00,18.9,4.2,30.19,NNE,22,2.0,8.0,52,0.00,,,0.00,VWS V15.00,2014-03-03 20:00:00,
2014-03-03 15:02:00,18.2,4.0,30.19,NNE,19,7.0,7.0,53,0.00,,,0.00,VWS V15.00,2014-03-03 20:02:00,
2014-03-03 15:07:00,18.3,4.4,30.19,NNE,17,0.0,7.0,54,0.00,,,0.00,VWS V15.00,2014-03-03 20:07:00,
2014-03-03 15:10:00,19.0,3.9,30.19,NE,44,1.0,9.0,51,0.00,,,0.00,VWS V15.00,2014-03-03 20:10:00,
2014-03-03 15:12:00,18.4,4.1,30.19,NNW,340,0.0,3.0,53,0.00,,,0.00,VWS V15.00,2014-03-03 20:12:00,
2014-03-03 15:17:00,18.5,4.2,30.18,North,360,2.0,8.0,53,0.00,,,0.00,VWS V15.00,2014-03-03 20:17:00,
2014-03-03 15:20:00,19.3,5.0,30.19,NNE,15,3.0,7.0,53,0.00,,,0.00,VWS V15.00,2014-03-03 20:20:00,
2014-03-03 15:22:00,18.5,4.2,30.18,NNE,19,0.0,2.0,53,0.00,,,0.00,VWS V15.00,2014-03-03 20:22:00,
2014-03-03 15:27:00,18.8,4.5,30.18,NNE,28,2.0,9.0,53,0.00,,,0.00,VWS V15.00,2014-03-03 20:27:00,
2014-03-03 15:30:00,19.7,4.5,30.20,NNW,343,5.0,8.0,51,0.00,,,0.00,VWS V15.00,2014-03-03 20:30:00,
2014-03-03 15:32:00,18.8,4.1,30.18,NE,35,5.0,5.0,52,0.00,,,0.00,VWS V15.00,2014-03-03 20:32:00,
2014-03-03 15:37:00,18.8,3.7,30.18,NE,38,2.0,7.0,51,0.00,,,0.00,VWS V15.00,2014-03-03 20:37:00,
2014-03-03 15:40:00,19.9,3.8,30.20,NNE,19,3.0,7.0,49,0.00,,,0.00,VWS V15.00,2014-03-03 20:40:00,
2014-03-03 15:42:00,18.8,4.1,30.18,NNE,32,4.0,10.0,52,0.00,,,0.00,VWS V15.00,2014-03-03 20:42:00,
2014-03-03 15:47:00,18.7,3.6,30.18,NE,41,1.0,10.0,51,0.00,,,0.00,VWS V15.00,2014-03-03 20:47:00,
2014-03-03 15:50:00,19.7,3.7,30.20,NNE,19,0.0,5.0,49,0.00,,,0.00,VWS V15.00,2014-03-03 20:50:00,
2014-03-03 15:52:00,18.7,4.0,30.18,North,9,2.0,8.0,52,0.00,,,0.00,VWS V15.00,2014-03-03 20:52:00,
2014-03-03 15:57:00,18.8,4.1,30.18,NNE,13,2.0,8.0,52,0.00,,,0.00,VWS V15.00,2014-03-03 20:57:00,
2014-03-03 16:00:00,19.5,3.5,30.21,NNW,337,3.0,7.0,49,0.00,,,0.00,VWS V15.00,2014-03-03 21:00:00,
2014-03-03 16:02:00,18.9,4.2,30.19,NNW,348,3.0,5.0,52,0.00,,,0.00,VWS V15.00,2014-03-03 21:02:00,
2014-03-03 16:07:00,19.0,4.3,30.19,NNE,26,2.0,9.0,52,0.00,,,0.00,VWS V15.00,2014-03-03 21:07:00,
2014-03-03 16:10:00,19.6,4.0,30.21,ENE,64,2.0,5.0,50,0.00,,,0.00,VWS V15.00,2014-03-03 21:10:00,
2014-03-03 16:12:00,19.0,3.9,30.19,NNE,15,2.0,2.0,51,0.00,,,0.00,VWS V15.00,2014-03-03 21:12:00,
2014-03-03 16:17:00,19.1,4.4,30.19,NNE,32,4.0,5.0,52,0.00,,,0.00,VWS V15.00,2014-03-03 21:17:00,
2014-03-03 16:20:00,19.6,4.0,30.22,NNE,14,0.0,6.0,50,0.00,,,0.00,VWS V15.00,2014-03-03 21:20:00,
2014-03-03 16:22:00,19.4,4.7,30.19,NNE,21,3.0,6.0,52,0.00,,,0.00,VWS V15.00,2014-03-03 21:22:00,
2014-03-03 16:27:00,19.5,4.3,30.19,NE,38,5.0,6.0,51,0.00,,,0.00,VWS V15.00,2014-03-03 21:27:00,
2014-03-03 16:30:00,19.5,3.9,30.22,North,355,0.0,6.0,50,0.00,,,0.00,VWS V15.00,2014-03-03 21:30:00,
2014-03-03 16:32:00,19.7,4.5,30.20,NNW,333,2.0,5.0,51,0.00,,,0.00,VWS V15.00,2014-03-03 21:32:00,
2014-03-03 16:37:00,19.9,4.7,30.20,NNE,21,5.0,7.0,51,0.00,,,0.00,VWS V15.00,2014-03-03 21:37:00,
2014-03-03 16:40:00,19.4,3.8,30.22,North,5,1.0,5.0,50,0.00,,,0.00,VWS V15.00,2014-03-03 21:40:00,
2014-03-03 16:42:00,19.8,3.7,30.20,NNE,12,1.0,4.0,49,0.00,,,0.00,VWS V15.00,2014-03-03 21:42:00,
2014-03-03 16:47:00,19.8,4.2,30.20,NNE,24,4.0,5.0,50,0.00,,,0.00,VWS V15.00,2014-03-03 21:47:00,
2014-03-03 16:50:00,19.3,3.7,30.23,NNE,17,0.0,4.0,50,0.00,,,0.00,VWS V15.00,2014-03-03 21:50:00,
2014-03-03 16:52:00,19.7,4.1,30.20,NNE,25,3.0,7.0,50,0.00,,,0.00,VWS V15.00,2014-03-03 21:52:00,
2014-03-03 16:57:00,19.6,3.5,30.20,NE,43,1.0,7.0,49,0.00,,,0.00,VWS V15.00,2014-03-03 21:57:00,
2014-03-03 17:00:00,19.1,3.5,30.23,NNE,30,0.0,6.0,50,0.00,,,0.00,VWS V15.00,2014-03-03 22:00:00,
2014-03-03 17:02:00,19.5,3.9,30.21,NW,306,1.0,5.0,50,0.00,,,0.00,VWS V15.00,2014-03-03 22:02:00,
2014-03-03 17:07:00,19.6,4.0,30.21,West,279,0.0,5.0,50,0.00,,,0.00,VWS V15.00,2014-03-03 22:07:00,
2014-03-03 17:10:00,19.0,3.9,30.23,NE,37,0.0,4.0,51,0.00,,,0.00,VWS V15.00,2014-03-03 22:10:00,
2014-03-03 17:12:00,19.6,3.5,30.21,NNE,27,6.0,6.0,49,0.00,,,0.00,VWS V15.00,2014-03-03 22:12:00,
2014-03-03 17:17:00,19.6,4.0,30.22,North,355,1.0,6.0,50,0.00,,,0.00,VWS V15.00,2014-03-03 22:17:00,
2014-03-03 17:20:00,18.7,4.0,30.24,North,11,0.0,5.0,52,0.00,,,0.00,VWS V15.00,2014-03-03 22:20:00,
2014-03-03 17:22:00,19.5,3.9,30.22,NNE,14,1.0,2.0,50,0.00,,,0.00,VWS V15.00,2014-03-03 22:22:00,
2014-03-03 17:27:00,19.5,3.9,30.22,WNW,287,0.0,5.0,50,0.00,,,0.00,VWS V15.00,2014-03-03 22:27:00,
2014-03-03 17:30:00,18.5,3.8,30.25,NNE,15,0.0,2.0,52,0.00,,,0.00,VWS V15.00,2014-03-03 22:30:00,
2014-03-03 17:32:00,19.5,3.9,30.22,North,360,0.0,1.0,50,0.00,,,0.00,VWS V15.00,2014-03-03 22:32:00,
2014-03-03 17:37:00,19.5,3.9,30.22,NNE,20,0.0,5.0,50,0.00,,,0.00,VWS V15.00,2014-03-03 22:37:00,
2014-03-03 17:40:00,18.2,3.5,30.25,WNW,303,0.0,4.0,52,0.00,,,0.00,VWS V15.00,2014-03-03 22:40:00,
2014-03-03 17:42:00,19.4,3.8,30.22,North,5,0.0,1.0,50,0.00,,,0.00,VWS V15.00,2014-03-03 22:42:00,
2014-03-03 17:47:00,19.3,3.7,30.23,NNE,15,1.0,4.0,50,0.00,,,0.00,VWS V15.00,2014-03-03 22:47:00,
2014-03-03 17:50:00,17.9,3.3,30.25,NW,304,0.0,2.0,52,0.00,,,0.00,VWS V15.00,2014-03-03 22:50:00,
2014-03-03 17:52:00,19.3,3.7,30.23,NNE,17,0.0,1.0,50,0.00,,,0.00,VWS V15.00,2014-03-03 22:52:00,
2014-03-03 17:57:00,19.2,3.6,30.23,North,11,1.0,6.0,50,0.00,,,0.00,VWS V15.00,2014-03-03 22:57:00,
2014-03-03 18:00:00,17.6,3.4,30.26,East,87,3.0,3.0,53,0.00,,,0.00,VWS V15.00,2014-03-03 23:00:00,
2014-03-03 18:02:00,19.1,3.5,30.23,NNE,30,0.0,4.0,50,0.00,,,0.00,VWS V15.00,2014-03-03 23:02:00,
2014-03-03 18:07:00,19.0,3.4,30.23,NE,36,0.0,4.0,50,0.00,,,0.00,VWS V15.00,2014-03-03 23:07:00,
2014-03-03 18:10:00,17.5,2.9,30.26,NE,46,1.0,4.0,52,0.00,,,0.00,VWS V15.00,2014-03-03 23:10:00,
2014-03-03 18:12:00,18.9,3.8,30.23,NE,36,0.0,0.0,51,0.00,,,0.00,VWS V15.00,2014-03-03 23:12:00,
2014-03-03 18:17:00,18.8,3.7,30.24,North,10,0.0,3.0,51,0.00,,,0.00,VWS V15.00,2014-03-03 23:17:00,
2014-03-03 18:20:00,17.4,3.2,30.26,NE,54,0.0,4.0,53,0.00,,,0.00,VWS V15.00,2014-03-03 23:20:00,
2014-03-03 18:22:00,18.7,4.0,30.24,North,11,0.0,1.0,52,0.00,,,0.00,VWS V15.00,2014-03-03 23:22:00,
2014-03-03 18:27:00,18.6,3.9,30.24,NNE,13,0.0,2.0,52,0.00,,,0.00,VWS V15.00,2014-03-03 23:27:00,
2014-03-03 18:30:00,17.3,3.1,30.27,ENE,70,0.0,5.0,53,0.00,,,0.00,VWS V15.00,2014-03-03 23:30:00,
2014-03-03 18:32:00,18.5,4.2,30.25,NNE,15,0.0,3.0,53,0.00,,,0.00,VWS V15.00,2014-03-03 23:32:00,
2014-03-03 18:37:00,18.3,3.6,30.25,WNW,303,0.0,4.0,52,0.00,,,0.00,VWS V15.00,2014-03-03 23:37:00,
2014-03-03 18:40:00,17.1,2.5,30.27,NE,53,2.0,4.0,52,0.00,,,0.00,VWS V15.00,2014-03-03 23:40:00,
2014-03-03 18:42:00,18.2,3.5,30.25,WNW,303,0.0,0.0,52,0.00,,,0.00,VWS V15.00,2014-03-03 23:42:00,
2014-03-03 18:47:00,18.0,3.3,30.25,NW,304,1.0,2.0,52,0.00,,,0.00,VWS V15.00,2014-03-03 23:47:00,
2014-03-03 18:50:00,17.0,2.4,30.28,North,355,0.0,4.0,52,0.00,,,0.00,VWS V15.00,2014-03-03 23:50:00,
2014-03-03 18:52:00,17.9,3.3,30.25,NW,304,0.0,0.0,52,0.00,,,0.00,VWS V15.00,2014-03-03 23:52:00,
2014-03-03 18:57:00,17.7,3.5,30.25,NW,305,0.0,1.0,53,0.00,,,0.00,VWS V15.00,2014-03-03 23:57:00,
2014-03-03 19:00:00,16.8,2.7,30.28,NE,34,0.0,4.0,53,0.00,,,0.00,VWS V15.00,2014-03-04 00:00:00,
2014-03-03 19:02:00,17.6,3.4,30.26,WNW,297,0.0,3.0,53,0.00,,,0.00,VWS V15.00,2014-03-04 00:02:00,
2014-03-03 19:07:00,17.6,3.0,30.26,NE,49,0.0,3.0,52,0.00,,,0.00,VWS V15.00,2014-03-04 00:07:00,
2014-03-03 19:10:00,16.5,2.4,30.28,NNE,23,2.0,4.0,53,0.00,,,0.00,VWS V15.00,2014-03-04 00:10:00,
2014-03-03 19:12:00,17.5,2.9,30.26,NE,46,0.0,1.0,52,0.00,,,0.00,VWS V15.00,2014-03-04 00:12:00,
2014-03-03 19:17:00,17.5,3.3,30.26,ENE,63,0.0,4.0,53,0.00,,,0.00,VWS V15.00,2014-03-04 00:17:00,
2014-03-03 19:20:00,16.3,2.2,30.28,NNW,348,0.0,5.0,53,0.00,,,0.00,VWS V15.00,2014-03-04 00:20:00,
2014-03-03 19:22:00,17.4,3.2,30.26,North,5,0.0,4.0,53,0.00,,,0.00,VWS V15.00,2014-03-04 00:22:00,
2014-03-03 19:27:00,17.3,3.1,30.26,NE,46,1.0,5.0,53,0.00,,,0.00,VWS V15.00,2014-03-04 00:27:00,
2014-03-03 19:30:00,16.1,2.0,30.29,NE,35,0.0,5.0,53,0.00,,,0.00,VWS V15.00,2014-03-04 00:30:00,
2014-03-03 19:32:00,17.3,3.1,30.27,ENE,70,3.0,3.0,53,0.00,,,0.00,VWS V15.00,2014-03-04 00:32:00,
2014-03-03 19:37:00,17.2,2.6,30.27,NW,306,0.0,4.0,52,0.00,,,0.00,VWS V15.00,2014-03-04 00:37:00,
2014-03-03 19:40:00,15.9,1.8,30.29,NW,321,1.0,4.0,53,0.00,,,0.00,VWS V15.00,2014-03-04 00:40:00,
2014-03-03 19:42:00,17.1,2.5,30.27,NE,52,1.0,2.0,52,0.00,,,0.00,VWS V15.00,2014-03-04 00:42:00,
2014-03-03 19:47:00,17.0,2.8,30.28,NE,34,0.0,4.0,53,0.00,,,0.00,VWS V15.00,2014-03-04 00:47:00,
2014-03-03 19:50:00,15.5,1.4,30.29,NE,51,6.0,9.0,53,0.00,,,0.00,VWS V15.00,2014-03-04 00:50:00,
2014-03-03 19:52:00,17.0,2.4,30.28,NE,35,2.0,3.0,52,0.00,,,0.00,VWS V15.00,2014-03-04 00:52:00,
2014-03-03 19:57:00,16.9,2.7,30.28,NNE,32,0.0,3.0,53,0.00,,,0.00,VWS V15.00,2014-03-04 00:57:00,
2014-03-03 20:00:00,15.3,1.2,30.29,NNE,26,2.0,9.0,53,0.00,,,0.00,VWS V15.00,2014-03-04 01:00:00,
2014-03-03 20:02:00,16.8,2.7,30.28,NNW,333,1.0,3.0,53,0.00,,,0.00,VWS V15.00,2014-03-04 01:02:00,
2014-03-03 20:07:00,16.7,2.5,30.28,North,351,2.0,3.0,53,0.00,,,0.00,VWS V15.00,2014-03-04 01:07:00,
2014-03-03 20:10:00,15.1,1.5,30.29,North,360,4.0,9.0,54,0.00,,,0.00,VWS V15.00,2014-03-04 01:10:00,
2014-03-03 20:12:00,16.5,2.4,30.28,NE,55,0.0,4.0,53,0.00,,,0.00,VWS V15.00,2014-03-04 01:12:00,
2014-03-03 20:17:00,16.4,2.3,30.28,NNE,32,0.0,5.0,53,0.00,,,0.00,VWS V15.00,2014-03-04 01:17:00,
2014-03-03 20:20:00,14.8,1.2,30.30,NE,40,1.0,6.0,54,0.00,,,0.00,VWS V15.00,2014-03-04 01:20:00,
2014-03-03 20:22:00,16.3,1.8,30.28,ENE,67,5.0,5.0,52,0.00,,,0.00,VWS V15.00,2014-03-04 01:22:00,
2014-03-03 20:27:00,16.2,2.1,30.28,North,355,0.0,5.0,53,0.00,,,0.00,VWS V15.00,2014-03-04 01:27:00,
2014-03-03 20:30:00,14.5,0.9,30.31,SW,229,0.0,6.0,54,0.00,,,0.00,VWS V15.00,2014-03-04 01:30:00,
2014-03-03 20:32:00,16.1,2.0,30.29,West,264,3.0,4.0,53,0.00,,,0.00,VWS V15.00,2014-03-04 01:32:00,
2014-03-03 20:37:00,16.0,1.9,30.29,NNW,335,0.0,4.0,53,0.00,,,0.00,VWS V15.00,2014-03-04 01:37:00,
2014-03-03 20:40:00,14.2,0.6,30.31,North,360,1.0,6.0,54,0.00,,,0.00,VWS V15.00,2014-03-04 01:40:00,
2014-03-03 20:42:00,15.9,1.8,30.29,NNW,344,2.0,3.0,53,0.00,,,0.00,VWS V15.00,2014-03-04 01:42:00,
2014-03-03 20:47:00,15.7,1.6,30.29,NNE,19,0.0,3.0,53,0.00,,,0.00,VWS V15.00,2014-03-04 01:47:00,
2014-03-03 20:50:00,13.9,0.7,30.31,WSW,254,3.0,4.0,55,0.00,,,0.00,VWS V15.00,2014-03-04 01:50:00,
2014-03-03 20:52:00,15.5,1.4,30.29,NNE,18,2.0,6.0,53,0.00,,,0.00,VWS V15.00,2014-03-04 01:52:00,
2014-03-03 20:57:00,15.4,1.3,30.29,WNW,295,0.0,9.0,53,0.00,,,0.00,VWS V15.00,2014-03-04 01:57:00,
2014-03-03 21:00:00,13.6,0.4,30.32,NNE,16,7.0,8.0,55,0.00,,,0.00,VWS V15.00,2014-03-04 02:00:00,
2014-03-03 21:02:00,15.3,1.2,30.29,SSE,149,0.0,2.0,53,0.00,,,0.00,VWS V15.00,2014-03-04 02:02:00,
2014-03-03 21:07:00,15.2,1.1,30.29,NNE,21,2.0,9.0,53,0.00,,,0.00,VWS V15.00,2014-03-04 02:07:00,
2014-03-03 21:10:00,13.4,0.3,30.32,NE,46,6.0,7.0,55,0.00,,,0.00,VWS V15.00,2014-03-04 02:10:00,
2014-03-03 21:12:00,15.1,1.1,30.29,North,5,3.0,6.0,53,0.00,,,0.00,VWS V15.00,2014-03-04 02:12:00,
2014-03-03 21:17:00,14.9,1.3,30.30,NNE,31,2.0,6.0,54,0.00,,,0.00,VWS V15.00,2014-03-04 02:17:00,
2014-03-03 21:20:00,13.1,0.4,30.31,North,350,2.0,7.0,56,0.00,,,0.00,VWS V15.00,2014-03-04 02:20:00,
2014-03-03 21:22:00,14.8,1.2,30.30,NE,53,5.0,6.0,54,0.00,,,0.00,VWS V15.00,2014-03-04 02:22:00,
2014-03-03 21:26:00,14.6,1.0,30.30,NE,36,3.0,6.0,54,0.00,,,0.00,VWS V15.00,2014-03-04 02:26:00,
2014-03-03 21:30:00,12.9,0.2,30.32,NE,48,1.0,7.0,56,0.00,,,0.00,VWS V15.00,2014-03-04 02:30:00,
2014-03-03 21:31:00,14.5,0.9,30.31,NE,48,1.0,4.0,54,0.00,,,0.00,VWS V15.00,2014-03-04 02:31:00,
2014-03-03 21:36:00,14.4,0.8,30.31,West,277,0.0,6.0,54,0.00,,,0.00,VWS V15.00,2014-03-04 02:36:00,
2014-03-03 21:40:00,12.7,0.0,30.32,North,5,0.0,4.0,56,0.00,,,0.00,VWS V15.00,2014-03-04 02:40:00,
2014-03-03 21:41:00,14.2,1.0,30.31,North,360,0.0,1.0,55,0.00,,,0.00,VWS V15.00,2014-03-04 02:41:00,
2014-03-03 21:46:00,14.1,0.9,30.31,ENE,76,1.0,4.0,55,0.00,,,0.00,VWS V15.00,2014-03-04 02:46:00,
2014-03-03 21:50:00,12.4,0.1,30.33,WNW,290,2.0,11.0,57,0.00,,,0.00,VWS V15.00,2014-03-04 02:50:00,
2014-03-03 21:51:00,13.9,0.7,30.31,ENE,65,1.0,3.0,55,0.00,,,0.00,VWS V15.00,2014-03-04 02:51:00,
2014-03-03 21:56:00,13.7,0.5,30.31,ENE,69,1.0,8.0,55,0.00,,,0.00,VWS V15.00,2014-03-04 02:56:00,
2014-03-03 22:00:00,12.2,-0.1,30.33,WNW,303,0.0,4.0,57,0.00,,,0.00,VWS V15.00,2014-03-04 03:00:00,
2014-03-03 22:01:00,13.6,0.4,30.32,North,5,0.0,7.0,55,0.00,,,0.00,VWS V15.00,2014-03-04 03:01:00,
2014-03-03 22:06:00,13.4,0.3,30.32,North,5,0.0,7.0,55,0.00,,,0.00,VWS V15.00,2014-03-04 03:06:00,
2014-03-03 22:10:00,11.9,0.0,30.33,NW,325,2.0,5.0,58,0.00,,,0.00,VWS V15.00,2014-03-04 03:10:00,
2014-03-03 22:11:00,13.3,0.2,30.32,NE,50,0.0,6.0,55,0.00,,,0.00,VWS V15.00,2014-03-04 03:11:00,
2014-03-03 22:16:00,13.2,0.1,30.31,NE,38,1.0,7.0,55,0.00,,,0.00,VWS V15.00,2014-03-04 03:16:00,
2014-03-03 22:20:00,11.6,0.1,30.33,NNE,32,0.0,3.0,59,0.00,,,0.00,VWS V15.00,2014-03-04 03:20:00,
2014-03-03 22:21:00,13.1,0.4,30.31,NNE,20,2.0,6.0,56,0.00,,,0.00,VWS V15.00,2014-03-04 03:21:00,
2014-03-03 22:26:00,13.0,0.3,30.31,NE,46,0.0,7.0,56,0.00,,,0.00,VWS V15.00,2014-03-04 03:26:00,
2014-03-03 22:30:00,11.4,-0.1,30.33,NNE,23,0.0,3.0,59,0.00,,,0.00,VWS V15.00,2014-03-04 03:30:00,
2014-03-03 22:31:00,12.9,0.2,30.32,NE,49,0.0,1.0,56,0.00,,,0.00,VWS V15.00,2014-03-04 03:31:00,
2014-03-03 22:36:00,12.8,0.1,30.32,NE,42,2.0,4.0,56,0.00,,,0.00,VWS V15.00,2014-03-04 03:36:00,
2014-03-03 22:40:00,11.2,-0.3,30.33,NE,46,1.0,8.0,59,0.00,,,0.00,VWS V15.00,2014-03-04 03:40:00,
2014-03-03 22:41:00,12.6,-0.1,30.32,North,5,0.0,1.0,56,0.00,,,0.00,VWS V15.00,2014-03-04 03:41:00,
2014-03-03 22:46:00,12.5,-0.2,30.33,WNW,293,1.0,11.0,56,0.00,,,0.00,VWS V15.00,2014-03-04 03:46:00,
2014-03-03 22:50:00,10.9,-0.6,30.32,ENE,61,1.0,4.0,59,0.00,,,0.00,VWS V15.00,2014-03-04 03:50:00,
2014-03-03 22:51:00,12.3,0.0,30.33,WNW,298,0.0,2.0,57,0.00,,,0.00,VWS V15.00,2014-03-04 03:51:00,
2014-03-03 22:56:00,12.2,-0.1,30.33,NNW,342,0.0,4.0,57,0.00,,,0.00,VWS V15.00,2014-03-04 03:56:00,
2014-03-03 23:00:00,10.6,-0.5,30.32,NE,50,0.0,5.0,60,0.00,,,0.00,VWS V15.00,2014-03-04 04:00:00,
2014-03-03 23:01:00,12.1,-0.2,30.33,WNW,303,0.0,0.0,57,0.00,,,0.00,VWS V15.00,2014-03-04 04:01:00,
2014-03-03 23:06:00,12.1,0.2,30.33,North,9,1.0,4.0,58,0.00,,,0.00,VWS V15.00,2014-03-04 04:06:00,
2014-03-03 23:10:00,10.5,-0.6,30.32,NE,42,0.0,3.0,60,0.00,,,0.00,VWS V15.00,2014-03-04 04:10:00,
2014-03-03 23:11:00,11.9,0.0,30.33,NW,325,0.0,2.0,58,0.00,,,0.00,VWS V15.00,2014-03-04 04:11:00,
2014-03-03 23:16:00,11.7,0.2,30.33,NNW,331,0.0,3.0,59,0.00,,,0.00,VWS V15.00,2014-03-04 04:16:00,
2014-03-03 23:20:00,10.3,-0.8,30.32,SE,140,1.0,4.0,60,0.00,,,0.00,VWS V15.00,2014-03-04 04:20:00,
2014-03-03 23:21:00,11.6,0.1,30.33,NNE,30,1.0,1.0,59,0.00,,,0.00,VWS V15.00,2014-03-04 04:21:00,
2014-03-03 23:26:00,11.5,0.0,30.33,NNE,19,0.0,2.0,59,0.00,,,0.00,VWS V15.00,2014-03-04 04:26:00,
2014-03-03 23:30:00,10.1,-1.0,30.32,ENE,67,0.0,6.0,60,0.00,,,0.00,VWS V15.00,2014-03-04 04:30:00,
2014-03-03 23:31:00,11.4,-0.1,30.33,NNE,23,1.0,1.0,59,0.00,,,0.00,VWS V15.00,2014-03-04 04:31:00,
2014-03-03 23:36:00,11.2,-0.7,30.33,NW,305,0.0,8.0,58,0.00,,,0.00,VWS V15.00,2014-03-04 04:36:00,
2014-03-03 23:40:00,9.9,-1.2,30.32,NNE,17,0.0,8.0,60,0.00,,,0.00,VWS V15.00,2014-03-04 04:40:00,
2014-03-03 23:41:00,11.1,-0.4,30.33,NE,41,1.0,3.0,59,0.00,,,0.00,VWS V15.00,2014-03-04 04:41:00,
2014-03-03 23:46:00,11.0,-0.5,30.32,ENE,64,3.0,3.0,59,0.00,,,0.00,VWS V15.00,2014-03-04 04:46:00,
2014-03-03 23:50:00,9.8,-1.3,30.32,NNW,342,3.0,7.0,60,0.00,,,0.00,VWS V15.00,2014-03-04 04:50:00,
2014-03-03 23:51:00,10.9,-0.6,30.32,ENE,61,0.0,2.0,59,0.00,,,0.00,VWS V15.00,2014-03-04 04:51:00,
2014-03-03 23:56:00,10.7,-0.4,30.32,ENE,68,3.0,3.0,60,0.00,,,0.00,VWS V15.00,2014-03-04 04:56:00,